Regional Weather Roundup
Issued by NWS

Home | Current Version | Previous Version | Graphics & Text | Print | Product List | Glossary On
Versions: 1 2 3 4 5 6 7 8 9 10 11 12 13 14 15 16 17 18 19 20 21 22 23 24 25 26 27 28 29 30 31 32 33 34 35 36 37 38 39 40 41 42 43 44 45 46 47 48 49 50
000
ASUS45 KCYS 280610
RWRWY

WYOMING REGIONAL WEATHER ROUNDUP
NATIONAL WEATHER SERVICE CHEYENNE WY
1200 AM MDT TUE APR 28 2015

NOTE:  "FAIR" INDICATES FEW OR NO CLOUDS BELOW 12,000 FEET
WITH NO SIGNIFICANT WEATHER AND/OR OBSTRUCTIONS TO VISIBILITY.

WYZ001-280700-
YELLOWSTONE NATIONAL PARK

CITY           SKY/WX    TMP DP  RH WIND       PRES   REMARKS
LK YELLOWSTONE   N/A     27  23  85 CALM      30.37S
6HR MIN TEMP:  27; 6HR MAX TEMP:  46;

W YELLOWSTONE  NOT AVBL

$$
WYZ002>013-054>058-071-098>099-280700-
NORTHERN WYOMING

CITY           SKY/WX    TMP DP  RH WIND       PRES   REMARKS
JACKSON        FAIR      34  30  86 N9        30.32R WCI  26
CODY           MOCLDY    43  37  81 S8        30.31S
GREYBULL       FAIR      44  35  70 SE5       30.31R
6HR MIN TEMP:  44; 6HR MAX TEMP:  57;

WORLAND        FAIR      42  35  76 SE10      30.31S
6HR MIN TEMP:  41; 6HR MAX TEMP:  56;

SHERIDAN       FAIR      36  31  82 CALM      30.31S
6HR MIN TEMP:  33; 6HR MAX TEMP:  52;

BUFFALO        FAIR      37  31  78 W6        30.32F WCI  32
6HR MIN TEMP:  37; 6HR MAX TEMP:  48;

GILLETTE       FAIR      37  32  82 CALM      30.32S
6HR MIN TEMP:  36; 6HR MAX TEMP:  52;

HULETT         FAIR      34  32  93 S3        30.34S
NEWCASTLE      FAIR      43  36  75 CALM      30.34S

$$
WYZ014>020-022>026-101>103-280700-
CENTRAL WYOMING

CITY           SKY/WX    TMP DP  RH WIND       PRES   REMARKS
BIG PINEY      MOCLDY    38  32  79 S6        30.34R WCI  33
6HR MIN TEMP:  38; 6HR MAX TEMP:  56;

PINEDALE       MOCLDY    37  36  93 CALM      30.35R
DUBOIS         CLOUDY    37  32  81 SE5       30.35S WCI  34
LANDER         MOCLDY    39  33  79 CALM      30.33R
6HR MIN TEMP:  38; 6HR MAX TEMP:  48;

RIVERTON       FAIR      42  34  73 W7        30.34R
6HR MIN TEMP:  40; 6HR MAX TEMP:  50;

CASPER         CLOUDY    42  36  79 E3        30.35S
6HR MIN TEMP:  42; 6HR MAX TEMP:  45;

DOUGLAS        CLOUDY    44  37  76 CALM      30.36S
6HR MIN TEMP:  44; 6HR MAX TEMP:  47;


$$
WYZ021-027>030-104>119-280700-
SOUTHERN WYOMING

CITY           SKY/WX    TMP DP  RH WIND       PRES   REMARKS
EVANSTON       FAIR      41  31  67 E7        30.31R
6HR MIN TEMP:  41; 6HR MAX TEMP:  54;

KEMMERER       MOCLDY    41  32  70 E3        30.33R
FORT BRIDGER   MOCLDY    39  32  75 S8        30.34R WCI  34
ROCK SPRINGS   FAIR      37  32  82 CALM      30.34R
6HR MIN TEMP:  37; 6HR MAX TEMP:  50;

DIXON          FAIR      40  34  79 E7        30.32R
RAWLINS        FAIR      38  33  82 NE8       30.33S WCI  32
6HR MIN TEMP:  38; 6HR MAX TEMP:  51;

SARATOGA       FAIR      34  32  93 W7        30.32R WCI  28
LARAMIE        CLOUDY    36  29  75 SE9       30.34S WCI  29
6HR MIN TEMP:  36; 6HR MAX TEMP:  41;

CHEYENNE       CLOUDY    40  36  86 N5        30.36R
6HR MIN TEMP:  40; 6HR MAX TEMP:  44;

TORRINGTON     CLOUDY    42  39  89 CALM      30.35S
6HR MIN TEMP:  41; 6HR MAX TEMP:  50;

PINE BLUFFS    CLOUDY    43  39  87 N7        30.36R

$$


USA.gov is the U.S. government's official web portal to all federal, state and local government web resources and services.